Temp
78 79 76 75 79 77 72 72 71 74 77 80 80 76 78 82 82 82 76 67 68 70 71 72 71 70 70 69 69 68 68 68 68 68 67 67 66 66 65 65 65 64 64
79 79 78 75 75 73 70 67 72 69 76 79 76 73 80 81 81 80 76 72 66 68 69 71 71 71 70 69 69 69 68 68 68 67 67 66 66 65 65 64 64 64 64
77 78 76 73 72 68 67 66 72 69 73 76 73 73 80 80 80 79 77 75 71 65 67 69 70 70 70 69 68 68 68 68 68 67 67 66 65 65 64 64 64 64 64
77 76 75 74 70 67 65 64 66 66 73 77 73 73 79 79 78 78 79 77 76 75 66 67 68 69 69 69 69 68 68 67 67 67 66 66 65 65 65 64 64 63 63
75 73 72 70 70 69 64 63 63 65 74 76 73 72 78 78 77 79 78 77 76 76 74 65 65 67 68 69 69 69 69 68 67 67 67 66 65 65 65 65 64 64 64
74 72 69 68 70 66 64 63 62 66 77 76 73 72 74 72 76 77 78 79 78 77 76 72 71 70 65 67 68 69 69 69 68 68 67 67 66 66 65 65 64 64 64
73 69 69 67 65 63 63 63 62 63 71 73 69 66 69 70 72 73 76 78 77 77 77 75 74 76 70 65 67 68 69 70 69 69 68 67 67 66 65 65 65 65 65
70 70 69 65 65 63 62 62 62 62 67 70 69 65 59 62 67 72 74 75 75 77 77 77 76 76 76 72 69 66 68 69 70 70 69 67 67 66 66 66 65 65 65
73 70 67 65 63 63 61 61 62 62 64 68 70 69 61 61 62 68 70 73 74 75 77 76 76 77 78 77 71 66 61 63 67 69 69 67 67 66 66 66 66 66 66
73 73 71 66 63 63 62 62 62 62 65 66 69 73 74 73 64 59 68 68 74 74 74 76 75 76 76 76 71 62 58 57 60 64 65 66 66 66 66 65 65 65 65
73 73 70 66 62 62 62 62 61 62 65 66 70 69 72 75 72 68 62 65 67 75 76 76 76 74 73 71 75 61 55 53 54 58 60 61 62 62 63 63 64 64 64
70 71 70 65 64 62 61 61 62 61 63 67 70 73 73 72 68 71 68 67 66 72 75 75 73 73 73 74 62 51 51 50 52 54 56 57 58 58 59 60 60 60 59
64 66 65 62 61 62 61 61 61 61 63 66 67 72 75 74 76 75 73 69 67 68 68 72 73 72 73 61 58 52 49 49 51 53 54 54 54 54 54 54 54 54 54
64 64 62 61 61 60 59 61 61 61 62 62 65 71 74 74 76 76 74 67 64 65 66 66 65 63 63 58 50 49 47 46 46 48 49 49 48 48 48 49 49 50 50
67 64 62 60 59 58 59 59 59 60 61 62 62 68 69 73 74 75 76 74 68 60 60 61 58 56 55 52 49 47 46 44 45 45 45 45 45 45 44 44 44 44 45
67 63 62 60 58 58 58 58 59 60 60 61 64 68 69 72 72 74 74 74 71 65 58 62 53 50 49 47 45 43 43 43 43 42 42 42 42 42 42 42 42 42 42
70 66 62 60 58 57 58 58 58 59 60 62 66 67 67 69 70 70 69 69 64 64 60 54 49 45 44 43 42 41 39 37 38 40 40 40 39 39 39 39 39 39 39
70 65 62 61 59 58 57 57 57 58 59 61 63 65 66 67 66 66 65 62 62 63 60 53 44 41 39 39 39 40 39 38 36 36 38 38 38 38 38 38 38 37 37
70 67 66 64 61 59 58 58 58 58 58 60 62 65 67 67 64 62 61 60 60 55 56 51 41 38 36 36 34 35 35 35 36 36 37 36 37 37 38 38 38 36 36
69 69 68 68 66 61 60 59 58 58 58 59 59 62 64 64 62 60 58 56 54 53 51 43 37 34 33 31 32 31 30 33 31 36 36 37 37 38 38 40 37 37 35
67 65 63 62 62 61 61 60 59 58 58 59 55 53 54 53 45 47 54 53 53 45 42 38 33 31 29 28 28 29 29 30 30 32 34 37 37 39 41 42 40 38 35
64 62 61 57 53 50 41 44 52 54 50 43 39 38 40 39 36 36 35 34 40 42 37 35 31 29 26 26 27 26 28 29 27 33 32 36 39 38 40 41 37 36 35
58 52 49 48 45 43 40 40 40 40 38 37 35 35 33 34 34 32 31 31 31 32 31 32 28 26 25 26 28 28 30 31 30 30 31 33 37 37 38 39 37 36 36
48 44 42 42 40 39 38 37 37 36 34 33 33 33 33 32 32 30 27 25 25 26 27 28 26 26 28 30 30 30 30 31 31 31 33 26 35 34 37 40 38 37 37
43 40 40 38 38 37 36 36 36 34 32 31 32 31 31 30 31 32 27 24 24 25 29 29 29 29 31 31 31 31 28 29 31 34 32 30 35 33 35 37 39 38 37
39 38 36 37 36 36 36 37 36 34 30 29 29 29 30 29 30 29 27 25 21 22 24 25 26 27 28 29 31 32 32 29 29 30 29 28 31 31 27 36 36 37 37
MSLP
1010.88 1011.37 1011.83 1012.23 1012.38 1013.17 1013.97 1014.51 1015.33 1015.44 1015.19 1015.06 1015.84 1016.59 1016.65 1016.40 1016.79 1017.43 1019.23 1020.31 1020.67 1021.06 1021.46 1021.73 1022.04 1022.68 1022.87 1023.25 1023.67 1023.88 1024.10 1024.37 1024.62 1025.00 1025.24 1025.45 1025.63 1025.89 1026.28 1026.55 1026.68 1026.76 1026.80
1010.21 1010.77 1011.37 1011.89 1012.13 1013.29 1014.19 1014.48 1014.76 1015.54 1014.94 1014.91 1015.94 1016.67 1016.34 1016.64 1017.30 1017.74 1019.05 1020.41 1020.83 1021.25 1021.58 1021.88 1022.30 1022.71 1023.00 1023.50 1023.85 1023.96 1024.28 1024.54 1024.85 1025.12 1025.49 1025.70 1025.80 1026.05 1026.36 1026.58 1026.67 1026.84 1026.94
1009.82 1010.43 1011.11 1011.74 1012.20 1013.00 1013.59 1014.23 1014.69 1015.18 1015.06 1015.25 1016.19 1016.60 1016.23 1016.82 1017.48 1017.75 1018.66 1019.81 1020.84 1021.42 1021.76 1022.11 1022.21 1022.72 1023.12 1023.52 1023.78 1024.02 1024.30 1024.63 1024.95 1025.25 1025.62 1025.85 1025.98 1026.15 1026.35 1026.56 1026.59 1026.68 1026.92
1009.48 1010.19 1010.68 1011.37 1012.06 1012.82 1013.84 1014.42 1014.54 1015.07 1014.41 1014.71 1016.01 1016.25 1016.15 1016.90 1017.44 1017.82 1018.26 1019.27 1020.01 1020.74 1021.82 1022.11 1022.34 1022.75 1023.11 1023.37 1023.70 1023.97 1024.26 1024.61 1024.89 1025.27 1025.65 1025.83 1026.03 1026.10 1026.24 1026.47 1026.55 1026.56 1026.72
1009.07 1009.77 1010.41 1011.01 1011.55 1012.57 1013.58 1014.32 1014.45 1014.84 1014.15 1014.65 1015.89 1015.95 1015.98 1016.59 1017.26 1017.67 1018.04 1018.71 1019.44 1020.09 1021.05 1021.97 1022.39 1022.68 1022.97 1023.23 1023.47 1023.74 1024.07 1024.43 1024.81 1025.17 1025.43 1025.68 1025.88 1025.93 1026.09 1026.23 1026.31 1026.29 1026.33
1008.57 1009.30 1009.99 1010.61 1011.17 1012.20 1013.06 1013.98 1014.74 1014.84 1013.96 1014.46 1015.62 1015.86 1015.94 1016.63 1016.98 1017.46 1017.74 1018.17 1018.84 1019.56 1020.24 1021.34 1022.12 1022.49 1022.94 1023.15 1023.43 1023.60 1023.76 1024.16 1024.52 1024.75 1025.04 1025.34 1025.51 1025.62 1025.77 1025.88 1025.94 1025.89 1025.95
1008.06 1009.01 1009.64 1010.17 1010.93 1011.72 1012.22 1013.32 1014.24 1014.38 1013.81 1014.09 1015.19 1015.85 1016.27 1016.95 1017.23 1017.39 1017.65 1017.92 1018.53 1019.20 1019.58 1020.50 1021.19 1021.37 1022.42 1022.96 1023.23 1023.42 1023.63 1023.74 1024.00 1024.29 1024.57 1024.87 1025.07 1025.14 1025.26 1025.35 1025.43 1025.44 1025.47
1007.76 1008.54 1008.99 1009.74 1010.51 1011.17 1012.12 1012.93 1013.59 1014.14 1013.97 1013.68 1014.33 1015.36 1016.27 1017.40 1017.39 1017.47 1017.92 1017.93 1018.26 1018.89 1019.33 1019.85 1020.36 1020.50 1021.06 1022.08 1022.59 1023.09 1023.30 1023.49 1023.64 1023.84 1024.11 1024.33 1024.52 1024.68 1024.81 1024.90 1024.99 1024.98 1024.99
1007.30 1008.02 1008.73 1009.30 1010.02 1010.79 1011.27 1012.19 1012.69 1013.38 1013.54 1013.44 1013.79 1013.99 1015.08 1015.54 1016.89 1017.40 1017.78 1017.88 1017.95 1018.56 1018.85 1019.52 1019.97 1020.19 1020.38 1020.79 1021.70 1022.52 1023.03 1023.35 1023.49 1023.64 1023.80 1024.02 1024.20 1024.34 1024.47 1024.52 1024.52 1024.52 1024.49
1006.87 1007.39 1007.82 1008.73 1009.54 1010.05 1010.64 1011.36 1011.76 1012.54 1013.01 1012.92 1013.59 1013.59 1013.69 1014.00 1015.21 1016.65 1017.44 1017.80 1017.76 1018.32 1018.60 1018.94 1019.60 1020.02 1020.33 1020.74 1020.95 1021.78 1022.41 1023.04 1023.42 1023.60 1023.74 1023.87 1023.98 1024.08 1024.17 1024.17 1024.15 1024.13 1024.09
1006.21 1006.59 1007.30 1008.16 1008.91 1009.43 1009.75 1010.20 1010.85 1011.53 1011.93 1012.34 1012.53 1012.95 1012.98 1013.13 1014.22 1014.98 1016.06 1017.10 1017.75 1017.83 1018.13 1018.59 1019.01 1019.66 1020.64 1020.94 1020.58 1022.00 1022.42 1023.04 1023.35 1023.61 1023.74 1023.81 1023.92 1024.01 1024.06 1024.06 1024.04 1023.98 1023.92
1005.70 1006.10 1006.77 1007.54 1008.25 1008.75 1009.11 1009.52 1009.78 1010.86 1011.33 1011.67 1011.79 1012.03 1012.04 1012.21 1013.09 1013.62 1014.62 1015.72 1016.63 1017.07 1017.57 1018.27 1019.13 1019.73 1020.00 1020.02 1021.37 1022.22 1022.69 1023.04 1023.34 1023.62 1023.98 1024.04 1024.05 1024.19 1024.16 1024.15 1024.19 1024.21 1024.24
1005.50 1005.80 1006.47 1007.21 1007.64 1008.09 1008.49 1009.11 1009.46 1010.22 1010.94 1011.00 1011.30 1011.51 1011.42 1011.89 1012.27 1012.79 1013.37 1014.56 1015.65 1016.53 1017.32 1017.85 1018.67 1019.45 1019.50 1020.70 1022.37 1022.87 1023.52 1023.72 1024.07 1024.30 1024.40 1024.47 1024.51 1024.79 1024.88 1024.89 1024.98 1025.11 1025.09
1005.12 1005.63 1006.29 1006.96 1007.31 1007.78 1008.19 1008.71 1009.03 1009.69 1010.30 1010.71 1011.22 1011.27 1011.30 1011.64 1011.94 1012.38 1012.85 1013.89 1015.11 1016.29 1017.34 1018.23 1019.74 1020.30 1020.58 1021.79 1023.32 1023.57 1024.55 1024.82 1025.23 1025.24 1025.15 1025.18 1025.44 1025.78 1025.74 1025.90 1025.76 1025.76 1025.77
1004.54 1005.27 1005.99 1006.74 1007.06 1007.59 1008.08 1008.60 1008.75 1009.10 1009.93 1010.51 1011.17 1011.23 1011.46 1011.67 1012.04 1012.34 1012.75 1013.16 1014.25 1015.74 1017.36 1018.95 1020.12 1021.32 1021.75 1022.44 1023.50 1024.45 1025.04 1025.68 1026.13 1026.07 1025.96 1025.81 1026.19 1026.31 1026.54 1026.84 1026.79 1026.71 1026.66
1004.07 1004.87 1005.50 1006.40 1006.90 1007.46 1008.04 1008.50 1008.82 1009.22 1009.69 1010.31 1010.81 1010.95 1011.28 1011.45 1011.97 1012.27 1012.79 1013.31 1014.30 1015.47 1017.13 1018.91 1020.87 1021.79 1022.92 1023.45 1024.32 1024.70 1025.51 1025.87 1026.57 1026.71 1026.68 1026.47 1026.74 1026.83 1027.00 1027.09 1027.20 1027.27 1027.37
1003.52 1004.22 1005.06 1005.78 1006.40 1007.10 1007.80 1008.36 1008.78 1009.01 1009.54 1009.82 1009.93 1010.62 1011.08 1011.32 1011.71 1012.47 1013.21 1013.90 1014.90 1015.56 1016.94 1019.79 1021.42 1023.15 1023.82 1024.06 1024.49 1025.32 1026.10 1026.60 1026.78 1026.81 1027.19 1027.05 1027.23 1027.35 1027.37 1027.47 1027.67 1027.60 1027.44
1003.24 1004.04 1004.61 1005.11 1005.67 1006.39 1007.08 1007.72 1008.31 1008.87 1008.99 1009.36 1009.69 1010.30 1010.67 1011.19 1012.05 1012.90 1013.82 1014.39 1014.88 1015.44 1016.62 1018.96 1021.81 1023.35 1024.32 1025.13 1025.27 1025.39 1026.40 1027.01 1026.95 1027.32 1027.52 1027.48 1027.44 1027.53 1027.49 1027.40 1027.51 1027.69 1027.56
1002.79 1003.19 1003.82 1004.55 1005.02 1005.71 1006.55 1007.11 1007.52 1008.11 1008.79 1009.13 1009.64 1010.00 1010.37 1010.90 1012.07 1013.01 1013.91 1014.33 1014.97 1016.02 1016.50 1018.46 1021.65 1023.61 1024.54 1025.58 1025.83 1026.56 1026.86 1027.36 1027.03 1027.57 1027.81 1027.81 1027.77 1027.76 1027.61 1027.71 1027.70 1027.87 1027.77
1002.56 1002.92 1003.38 1003.73 1004.25 1004.95 1005.82 1006.61 1007.14 1007.55 1008.23 1008.86 1009.46 1009.78 1010.19 1010.83 1011.76 1012.91 1013.63 1014.07 1015.24 1016.70 1017.71 1018.98 1021.37 1023.15 1024.49 1025.78 1026.09 1026.57 1027.25 1027.29 1027.31 1027.81 1027.76 1027.64 1027.55 1027.51 1027.48 1027.50 1027.76 1027.69 1027.78
1002.64 1003.22 1003.63 1004.13 1004.43 1004.93 1005.28 1005.72 1006.35 1006.81 1007.14 1008.13 1008.89 1009.60 1010.45 1011.35 1012.26 1013.23 1013.69 1014.37 1015.61 1017.05 1018.25 1019.78 1021.39 1023.19 1024.67 1025.82 1026.15 1026.76 1027.07 1027.46 1028.11 1028.21 1027.68 1027.36 1027.17 1026.94 1027.14 1027.24 1027.38 1027.74 1027.91
1002.62 1003.32 1003.84 1004.29 1004.93 1005.52 1005.62 1005.65 1005.86 1006.19 1007.18 1008.31 1009.42 1010.87 1011.65 1012.13 1013.01 1013.57 1015.00 1015.56 1016.34 1016.82 1018.59 1020.01 1021.81 1023.14 1024.72 1025.71 1026.37 1026.74 1027.03 1027.34 1027.93 1028.12 1027.85 1027.22 1027.27 1027.01 1027.00 1027.14 1027.55 1027.59 1027.55
1003.21 1003.88 1004.75 1005.33 1005.99 1006.58 1006.37 1006.35 1006.60 1007.65 1008.67 1009.66 1010.30 1011.40 1012.38 1013.46 1013.61 1014.77 1016.21 1017.21 1017.97 1018.41 1018.95 1019.94 1021.64 1023.51 1024.84 1025.71 1026.22 1026.69 1026.79 1026.99 1027.62 1028.27 1028.09 1027.42 1027.33 1027.07 1027.24 1027.28 1027.30 1027.32 1027.26
1004.02 1004.76 1005.57 1006.27 1006.80 1007.63 1007.46 1007.46 1007.79 1008.87 1010.04 1011.11 1011.68 1012.57 1012.97 1013.83 1014.82 1015.26 1016.99 1018.34 1019.89 1020.68 1021.49 1022.14 1023.05 1024.40 1025.30 1025.74 1026.20 1026.53 1026.82 1027.17 1027.86 1028.26 1028.19 1028.05 1027.54 1027.18 1027.16 1026.79 1026.82 1026.91 1026.80
1004.87 1005.65 1006.41 1006.87 1007.47 1008.32 1008.63 1008.10 1008.56 1010.11 1011.27 1012.49 1013.31 1013.95 1014.38 1014.96 1016.15 1016.33 1017.00 1019.10 1021.15 1022.65 1023.48 1023.89 1024.43 1025.37 1025.84 1026.24 1026.62 1026.82 1026.98 1027.28 1027.42 1027.79 1028.58 1028.23 1027.48 1027.23 1026.83 1026.40 1026.55 1026.70 1026.31
1005.45 1006.41 1007.16 1007.75 1008.42 1008.89 1009.56 1009.49 1009.24 1010.77 1012.13 1013.42 1014.81 1015.69 1016.36 1016.76 1017.35 1017.76 1018.07 1019.56 1021.24 1023.53 1024.06 1024.87 1025.72 1026.17 1026.58 1027.06 1027.29 1027.07 1027.07 1027.23 1027.61 1027.73 1029.04 1028.70 1028.03 1027.93 1027.22 1026.57 1026.80 1026.58 1026.01
Wind_Speed
10 10 10 9 10 8 8 9 8 9 12 11 13 9 9 7 8 7 8 9 11 13 14 14 14 13 13 12 12 12 12 12 10 9 8 8 7 7 5 3 3 2 2
10 11 10 8 8 8 8 7 9 8 7 9 10 7 11 9 10 12 10 9 11 11 13 13 14 13 13 12 11 11 10 9 9 9 7 7 6 5 4 2 1 1 3
11 12 11 9 8 8 11 8 13 10 9 10 10 9 10 9 10 9 12 11 10 9 11 12 13 12 12 12 11 10 9 9 8 8 7 6 5 5 4 3 4 4 5
14 13 10 11 8 8 6 6 8 9 9 12 10 8 10 10 10 8 10 11 10 10 7 10 11 11 12 13 12 11 10 9 8 7 7 7 7 6 6 7 7 6 8
14 11 10 9 9 9 9 7 3 6 8 10 11 8 9 11 12 11 14 13 12 11 10 11 11 11 11 12 13 12 12 11 9 9 9 9 9 8 8 9 10 10 11
13 12 9 11 10 10 10 9 10 10 10 11 12 8 8 7 9 9 10 9 11 11 12 14 10 9 10 10 12 13 12 12 12 11 11 11 11 11 11 12 14 13 13
15 12 9 10 10 10 13 15 11 10 10 11 12 8 7 7 8 6 6 9 11 9 10 12 9 8 9 11 12 13 14 14 13 13 15 14 13 13 15 15 15 15 16
13 14 12 10 13 10 14 15 15 10 10 10 13 10 7 7 6 9 9 9 11 10 10 11 12 11 11 10 13 14 15 14 14 14 14 14 14 14 15 15 16 17 17
12 16 14 10 12 12 11 16 16 18 13 11 17 13 11 9 9 7 11 10 11 9 10 11 11 10 9 10 12 13 13 12 11 11 10 9 9 10 11 12 13 15 18
15 16 14 12 11 11 14 15 16 16 14 14 13 13 12 12 13 10 10 8 8 11 10 10 10 11 8 6 8 8 16 10 8 10 13 14 14 14 14 14 14 14 15
15 14 12 11 10 10 14 19 17 19 14 13 14 14 13 9 14 12 12 12 7 11 11 9 9 7 7 8 6 9 9 5 4 6 8 9 10 12 12 13 14 14 14
8 12 11 11 12 12 14 16 18 20 15 15 13 14 13 10 13 11 11 12 13 11 10 10 8 8 8 8 13 18 14 11 9 7 7 6 5 6 6 8 9 11 13
8 10 10 9 9 12 11 14 16 17 18 14 14 13 9 10 10 9 9 11 11 9 6 7 7 8 7 11 11 17 20 17 14 13 14 16 17 17 17 17 16 15 15
9 11 10 10 10 9 9 15 14 14 16 11 14 14 8 8 7 8 7 9 10 8 7 8 5 7 9 10 14 20 14 18 16 16 18 20 19 18 18 16 16 15 16
10 12 12 11 11 10 10 10 10 12 11 13 12 15 10 9 8 6 7 7 10 10 10 7 4 7 8 8 11 11 13 17 16 16 18 19 18 18 17 16 16 16 16
12 12 13 13 12 11 11 10 9 12 11 12 12 17 12 9 9 7 6 6 6 8 7 5 6 5 8 9 12 12 13 17 16 16 17 17 16 15 14 15 15 15 15
12 13 12 12 13 13 13 12 9 14 13 13 13 14 14 10 8 6 6 6 5 6 9 5 4 6 6 8 9 9 9 8 8 15 13 14 13 13 14 14 14 14 13
11 10 12 12 14 15 15 16 14 12 14 14 14 14 15 9 11 10 8 10 8 7 5 10 4 3 6 6 6 8 7 7 6 11 9 10 10 10 10 10 10 11 10
10 10 13 12 11 12 15 16 16 16 15 14 15 17 17 16 14 11 9 8 7 3 5 6 5 3 4 3 5 5 6 6 6 7 5 6 5 4 6 7 9 10 11
9 9 9 9 10 12 13 13 13 15 16 16 15 14 14 14 15 13 10 10 7 5 3 6 5 4 4 3 3 3 4 3 5 3 2 0 2 5 4 2 7 9 10
9 7 7 6 7 8 7 12 15 17 18 17 8 7 6 9 14 8 5 7 8 5 6 5 5 4 4 3 3 2 3 4 3 3 3 2 2 3 2 7 8 11 12
9 9 6 6 5 3 4 6 7 8 8 11 13 11 11 22 22 27 26 26 8 9 7 6 4 6 5 7 4 3 4 3 2 3 3 1 3 2 1 4 9 10 10
9 9 7 8 9 7 12 18 20 12 12 11 13 12 13 10 18 20 28 30 29 28 15 7 14 9 9 5 6 5 4 3 4 3 3 2 4 4 5 5 5 8 11
9 8 8 9 11 9 17 23 25 16 15 13 12 11 13 14 13 20 21 21 19 17 15 12 14 12 10 8 6 5 4 4 6 5 5 2 3 6 6 5 2 9 16
9 8 7 10 12 12 14 24 22 16 17 16 14 13 12 16 24 28 24 23 21 18 24 29 27 24 20 16 9 5 5 4 3 4 5 3 3 6 6 4 6 14 15
11 9 11 10 13 13 13 18 22 14 17 14 14 16 22 18 24 24 21 19 21 15 15 15 14 16 16 13 12 7 5 5 3 4 5 4 4 6 5 3 7 7 7
Wind_Direction
195 203 206 189 193 168 174 174 183 188 217 175 166 137 208 187 138 125 140 146 147 147 157 150 145 152 151 146 147 142 143 145 149 141 136 127 120 113 121 118 93 67 42
197 196 208 211 190 177 172 170 185 195 222 156 149 168 182 161 165 139 136 152 146 155 153 158 155 163 157 154 160 154 149 152 154 152 154 152 145 143 146 159 159 290 310
204 205 199 197 195 170 169 182 199 191 196 156 169 196 174 160 169 168 146 150 153 153 161 166 159 168 164 164 158 158 163 162 167 166 169 174 177 176 184 222 237 255 280
201 205 200 200 191 175 157 184 201 207 182 167 172 182 163 167 164 164 155 153 159 164 168 172 162 175 177 171 172 174 175 179 183 185 192 201 211 213 220 236 249 259 270
201 192 195 197 178 172 154 160 190 228 182 171 177 195 162 168 164 176 169 166 169 163 176 168 176 174 179 176 182 185 188 189 193 204 208 215 225 228 237 247 248 249 255
197 202 192 196 187 171 167 161 183 218 195 171 186 175 171 136 174 173 172 172 165 174 182 169 178 183 185 184 196 202 199 195 202 210 220 228 228 230 232 239 244 247 254
202 193 191 178 180 180 176 175 183 200 216 174 166 167 135 145 167 169 182 181 165 192 181 170 187 190 183 195 203 210 214 210 207 213 219 224 230 230 231 234 237 244 247
187 200 198 183 184 174 171 173 181 194 217 189 161 160 153 169 178 171 187 212 170 186 192 182 194 201 178 192 203 210 221 224 222 224 227 227 233 236 240 244 246 247 250
204 192 196 190 188 187 180 182 180 186 201 187 175 169 155 179 168 178 176 217 163 195 191 193 201 205 215 188 178 195 208 229 242 253 269 282 280 274 273 269 265 262 260
203 209 200 194 189 191 187 186 179 185 207 187 185 188 191 182 170 172 187 201 188 201 192 188 193 209 200 235 191 124 188 207 225 245 259 271 280 288 290 291 293 292 291
211 205 194 192 187 200 201 192 182 188 197 190 186 196 199 183 178 171 178 182 205 193 191 202 186 192 193 228 207 69 115 172 224 258 277 286 292 296 299 296 295 301 308
203 208 202 197 202 203 196 191 179 185 185 202 189 196 189 194 173 177 177 183 178 193 193 187 183 198 209 207 83 65 59 55 40 19 352 351 355 337 343 9 15 27 35
199 202 196 187 194 194 184 181 180 184 194 190 189 196 185 198 176 209 180 175 178 177 182 169 171 201 216 81 73 76 58 57 63 71 76 76 71 65 59 56 52 47 46
187 176 176 177 174 171 175 188 182 182 189 187 195 197 196 179 196 191 204 162 179 157 178 155 81 73 57 80 95 85 70 64 65 71 79 77 72 66 60 54 52 48 42
178 178 177 176 170 167 171 183 181 173 181 179 196 201 197 185 202 193 203 172 164 159 164 147 119 82 93 96 92 91 91 83 79 77 78 77 72 66 59 49 41 33 24
170 179 177 175 171 172 172 176 179 182 180 187 196 200 199 196 195 184 195 161 158 158 144 138 63 96 98 94 102 104 98 92 88 82 77 76 70 64 59 49 39 30 19
193 175 176 175 173 173 180 180 184 184 191 192 193 198 196 200 185 174 162 153 147 137 151 103 92 103 85 105 116 104 101 91 83 75 76 74 73 63 54 46 36 30 23
184 172 182 186 177 175 177 186 182 190 186 192 195 197 200 194 174 172 173 163 156 151 123 133 116 115 77 86 81 102 113 105 98 71 66 72 69 63 56 50 45 29 20
207 194 187 190 176 179 181 189 189 185 193 196 198 204 201 191 180 173 173 147 138 121 112 117 115 120 96 137 90 80 106 114 94 87 78 72 59 54 50 32 51 28 12
206 207 210 209 188 175 185 189 195 191 192 196 202 209 202 181 181 173 166 143 123 119 102 109 104 109 104 85 89 131 115 68 69 36 27 91 272 269 208 334 61 26 2
192 181 185 183 183 188 193 196 203 201 197 192 174 151 150 128 94 85 151 136 144 130 129 123 113 113 111 136 124 119 105 113 72 6 323 219 281 241 95 351 23 356 353
157 166 154 90 83 31 301 179 190 187 146 127 116 93 100 99 91 89 80 63 69 146 142 129 122 126 106 112 113 112 125 153 129 33 350 256 11 322 352 328 356 347 344
120 100 93 100 88 77 94 102 101 94 96 100 104 105 97 92 98 95 82 76 65 63 64 101 119 108 113 131 128 122 122 109 102 59 21 227 34 337 336 307 342 333 340
117 107 101 101 100 88 103 100 97 95 88 80 80 92 106 99 103 107 95 82 72 66 70 83 90 95 102 103 98 107 106 112 122 102 39 27 342 326 327 307 88 348 337
108 99 102 104 106 104 109 110 103 96 89 81 75 76 91 103 115 113 105 101 94 88 86 91 93 98 98 95 92 104 94 111 120 108 47 331 358 329 325 324 352 337 330
107 104 93 90 101 106 105 112 112 112 104 101 89 83 88 103 108 108 107 113 108 111 110 103 99 91 84 79 75 74 77 110 128 165 50 340 2 2 334 331 337 335 324